Location: Albany
(35.0170°S, 117.8920°E)
Time: 09:36:40
(UTC+08:00)

S-56A Canister/Altair - Pass Details

Date: 31 January 2021
Orbit: 632 x 2501 km, 38.9° (Epoch: 25 February)

Event Time Altitude Azimuth Distance (km) Brightness Sun altitude
Rises 11:55:24 0° 296° (WNW) 4,827 11.6 71.4°
Reaches altitude 10° 11:58:11 10° 296° (WNW) 4,060 11.4 71.5°
Maximum altitude 12:09:46 86° 22° (NNE) 2,245 12.0 72.1°
Drops below altitude 10° 12:25:01 10° 108° (ESE) 5,180 11.8 72.3°
Sets 12:29:04 0° 108° (ESE) 6,179 12.1 72.2°
